Weather History for Tampa Macdill AFB, FL

Change the Weather History Date:

Wednesday, July 31, 2013

  Actual Average Record
Temperature  
Mean Temperature 84 °F -  
Max Temperature 94 °F 88 °F 94 °F (2013)
Min Temperature 75 °F 73 °F 72 °F (2014)
Cooling Degree Days 20    
Growing Degree Days 34 (Base 50)    
Moisture  
Dew Point 75 °F    
Average Humidity 83    
Maximum Humidity 100    
Minimum Humidity 54    
Precipitation  
Precipitation 0.00 in - - ()
Sea Level Pressure  
Sea Level Pressure 30.08 in    
Wind  
Wind Speed 7 mph (ESE)    
Max Wind Speed 25 mph    
Max Gust Speed 36 mph    
Visibility 10 miles    
Events Rain , Thunderstorm    
Averages and records for this station are not official NWS values.
T = Trace of Precipitation, MM = Missing Value Source: NWS Daily Summary

Daily Weather History Graph

Daily Weather History Graph

Search for Another Location

Airport:

Trip Planner

Search our weather history database for the weather conditions in past years. The results will help you decide how hot, cold, wet, or windy it might be!

Date:

Astronomy

Jul. 31, 2013 Rise Set
Actual Time 6:52 AM EDT 8:20 PM EDT
Civil Twilight 6:27 AM EDT 8:45 PM EDT
Nautical Twilight 5:56 AM EDT 9:15 PM EDT
Astronomical Twilight 5:25 AM EDT 9:46 PM EDT
Moon 1:46 AM EDT (7/31) 3:33 PM EDT (7/31)
Length of Visible Light 14h 18m
Length of Day
13h 27m
Waning Crescent, 32% of the Moon is Illuminated
Jul 31
Waning Crescent
Aug 6
New
Aug 14
First Quarter
Aug 20
Full
Aug 28
Last Quarter

Hourly Weather History & Observations

Time (EDT) Temp. Heat Index Dew Point Humidity Pressure Visibility Wind Dir Wind Speed Gust Speed Precip Events Conditions
12:58 AM 77.9 °F - 76.1 °F 94% 30.15 in 10.0 mi ENE 3.5 mph - N/A   Clear
1:58 AM 77.2 °F - 76.6 °F 98% 30.12 in 10.0 mi NE 4.6 mph - N/A   Clear
2:58 AM 77.0 °F - 76.6 °F 99% 30.09 in 10.0 mi NE 4.6 mph - N/A   Clear
3:58 AM 76.5 °F - 76.3 °F 99% 30.09 in 10.0 mi NE 4.6 mph - N/A   Clear
4:58 AM 75.6 °F - 75.6 °F 100% 30.09 in 10.0 mi NE 5.8 mph - N/A   Scattered Clouds
5:13 AM 75.2 °F - 75.2 °F 100% 30.08 in 10.0 mi ENE 5.8 mph - N/A   Mostly Cloudy
5:33 AM 77.0 °F - 77.0 °F 100% 30.09 in 10.0 mi ENE 6.9 mph - N/A   Scattered Clouds
5:58 AM 75.7 °F - 75.6 °F 99% 30.10 in 10.0 mi East 6.9 mph - N/A   Clear
6:58 AM 77.0 °F - 77.0 °F 100% 30.11 in 10.0 mi East 5.8 mph - N/A   Clear
7:58 AM 79.3 °F - 78.6 °F 98% 30.12 in 10.0 mi ESE 6.9 mph - N/A   Clear
8:58 AM 82.6 °F 92.7 °F 78.8 °F 88% 30.14 in 10.0 mi SE 8.1 mph - N/A   Clear
9:58 AM 86.4 °F 100.4 °F 79.2 °F 79% 30.14 in 10.0 mi SE 5.8 mph - N/A   Clear
10:58 AM 88.2 °F 104.2 °F 79.7 °F 76% 30.14 in 10.0 mi ESE 4.6 mph - N/A   Clear
11:58 AM 88.9 °F 100.9 °F 76.8 °F 67% 30.14 in 10.0 mi East 6.9 mph - N/A   Scattered Clouds
12:58 PM 91.0 °F 103.5 °F 76.5 °F 62% 30.12 in 10.0 mi ENE 8.1 mph - N/A   Scattered Clouds
1:58 PM 92.3 °F 105.5 °F 76.6 °F 60% 30.10 in 10.0 mi SSW 5.8 mph - N/A   Mostly Cloudy
2:58 PM 92.8 °F 104.1 °F 75.2 °F 56% 30.07 in 10.0 mi SSW 6.9 mph - N/A   Scattered Clouds
3:58 PM 94.5 °F 106.8 °F 75.6 °F 54% 30.04 in 10.0 mi SW 5.8 mph - N/A   Clear
4:58 PM 93.0 °F 103.9 °F 74.8 °F 55% 30.03 in 10.0 mi WSW 10.4 mph - N/A   Clear
5:58 PM 90.3 °F 106.2 °F 78.8 °F 69% 30.03 in 10.0 mi WNW 9.2 mph - N/A   Clear
6:40 PM 87.8 °F 99.7 °F 77.0 °F 70% 30.04 in 10.0 mi SSE 21.9 mph 26.5 mph N/A Thunderstorm Thunderstorm
6:46 PM 84.2 °F 92.3 °F 75.2 °F 74% 30.03 in 10.0 mi SE 25.3 mph 35.7 mph N/A Thunderstorm Thunderstorm
6:49 PM 82.4 °F 88.2 °F 73.4 °F 74% 30.02 in 10.0 mi SE 18.4 mph 35.7 mph N/A Rain , Thunderstorm Light Thunderstorms and Rain
6:58 PM 79.5 °F - 68.9 °F 70% 30.03 in 10.0 mi SE 21.9 mph 35.7 mph 0.00 in Rain , Thunderstorm Light Thunderstorms and Rain
6:59 PM 78.8 °F - 68.0 °F 69% 30.02 in 10.0 mi SE 18.4 mph 35.7 mph N/A Thunderstorm Thunderstorm
7:03 PM 78.8 °F - 68.0 °F 69% 30.02 in 10.0 mi SE 23.0 mph 31.1 mph N/A Rain , Thunderstorm Light Thunderstorms and Rain
7:25 PM 75.2 °F - 71.6 °F 89% 30.02 in 10.0 mi East 6.9 mph - N/A Thunderstorm Light Drizzle
7:33 PM 75.2 °F - 71.6 °F 89% 30.02 in 10.0 mi NE 5.8 mph - N/A Thunderstorm Mostly Cloudy
7:58 PM 75.4 °F - 72.3 °F 90% 30.05 in 10.0 mi NE 5.8 mph - 0.00 in Thunderstorm Partly Cloudy
8:58 PM 75.9 °F - 73.4 °F 92% 30.06 in 10.0 mi East 8.1 mph - N/A   Scattered Clouds
9:58 PM 77.0 °F - 75.0 °F 94% 30.08 in 10.0 mi SE 3.5 mph - N/A   Partly Cloudy
10:58 PM 77.2 °F - 75.7 °F 95% 30.08 in 10.0 mi SE 3.5 mph - N/A   Clear
11:58 PM 76.6 °F - 75.2 °F 95% 30.08 in 10.0 mi ENE 6.9 mph - N/A   Clear